Regional Weather Roundup
Issued by NWS

Home | Current Version | Previous Version | Graphics & Text | Print | Product List | Glossary On
Versions: 1 2 3 4 5 6 7 8 9 10 11 12 13 14 15 16 17 18 19 20 21 22 23 24 25 26 27 28 29 30 31 32 33 34 35 36 37 38 39 40 41 42 43 44 45 46 47 48 49 50
000
ASUS43 KDMX 231801
RWRIA

WEATHER ROUNDUP FOR IOWA
NATIONAL WEATHER SERVICE DES MOINES IA
100 PM CDT SUN APR 23 2017

NOTE: "FAIR" INDICATES FEW OR NO CLOUDS BELOW 12,000 FEET WITH NO
SIGNIFICANT WEATHER AND/OR OBSTRUCTIONS TO VISIBILITY.

* - THESE STATIONS ARE NOT NWS STATIONS...THUS NOT UNDER NWS
QUALITY CONTROL.  THEY ALSO DO NOT REPORT WEATHER SUCH
AS PRECIPITATION OR FOG.

IAZ001>003-012>014-020>022-031>034-043>046-231900-
   NORTHWEST IOWA

CITY           SKY/WX    TMP DP  RH WIND       PRES   REMARKS
CARROLL *      SUNNY     68  30  24 SW14G23   30.07F
CHEROKEE *     SUNNY     66  35  32 SW18G26   30.04F
DENISON *      SUNNY     66  32  28 SW15G23   30.09F
LE MARS *      SUNNY     68  34  28 S16G29    30.02F
ORANGE CITY *  SUNNY     66  36  32 S18G28    30.01F
SHELDON *      SUNNY     68  32  26 S17G26    30.00F
SIOUX CITY     SUNNY     70  34  26 SW18      30.04F
6HR MIN TEMP:  36; 6HR MAX TEMP:  70;

SPENCER        MOSUNNY   69  30  23 MISG      30.03F
6HR MIN TEMP:  39; 6HR MAX TEMP:  69;

STORM LAKE *     N/A     66  30  26 SW18G25   30.05F
$$

IAZ055>058-069>071-079>083-090>094-231900-
   SOUTHWEST IOWA

CITY           SKY/WX    TMP DP  RH WIND       PRES   REMARKS
ATLANTIC *     SUNNY     66  30  26 S12G17    30.10F
AUDUBON *      SUNNY     68  21  17 S13       30.10F
CLARINDA *     SUNNY     66  36  32 VRB7G15   30.15F
COUNCIL BLFS * SUNNY     66  32  28 SW10G21   30.10F
CRESTON *      SUNNY     66  30  26 W5G13     30.13F
HARLAN  *      SUNNY     68  30  24 SW14G21   30.12F
LAMONI         SUNNY     66  32  28 VRB3      30.13F
6HR MIN TEMP:  44; 6HR MAX TEMP:  67;

RED OAK *      SUNNY     68  30  24 S8G16     30.12F
SHENANDOAH *   SUNNY     66  30  26 VRB5G16   30.13F
$$

IAZ047>049-059>061-072>074-084-231900-
   CENTRAL IOWA

CITY           SKY/WX    TMP DP  RH WIND       PRES   REMARKS
AMES           SUNNY     68  35  29 S8G18     30.08F
6HR MIN TEMP:  39; 6HR MAX TEMP:  69;

ANKENY *       SUNNY     68  30  24 S8        30.11F
BOONE *        SUNNY     68  28  22 SW9G18    30.07F
CHARITON *     SUNNY     66  36  32 SW5       30.12F
DES MOINES     MOSUNNY   69  32  25 S10       30.10F
6HR MIN TEMP:  43; 6HR MAX TEMP:  70;

GRINNELL*      SUNNY     67  31  26 SW3       30.12F
KNOXVILLE *    SUNNY     66  32  28 CALM      30.10F
MARSHALLTOWN   SUNNY     68  35  29 SW9       30.08F
6HR MIN TEMP:  38; 6HR MAX TEMP:  68;

NEWTON *       SUNNY     68  30  24 VRB6G14   30.09F
PELLA *        SUNNY     67  29  24 W3        30.12F
PERRY *          N/A     69  25  19 SW10G16   30.09F
$$

IAZ004>006-015-016-023>025-035-036-231900-
   NORTH CENTRAL IOWA

CITY           SKY/WX    TMP DP  RH WIND       PRES   REMARKS
ALGONA *       SUNNY     68  32  26 SW16G24   30.05F
CLARION *      SUNNY     68  30  24 SW16G22   30.06F
ESTHERVILLE    SUNNY     66  31  27 S18G24    30.02F
6HR MIN TEMP:  40; 6HR MAX TEMP:  67;

FORT DODGE *   SUNNY     68  36  30 SW14      30.08F
MASON CITY     SUNNY     68  30  24 SW14G22   30.07F
6HR MIN TEMP:  45; 6HR MAX TEMP:  68;

FOREST CITY *    N/A     70  32  24 SW14G20   30.06S
WEBSTER CITY * SUNNY     70  30  23 S14G21    30.05F
IOWA FALLS *     N/A     69  32  25 SW9G18    30.09F
$$

IAZ007>011-017>019-026>030-037>042-050>054-066-231900-
   NORTHEAST IOWA

CITY           SKY/WX    TMP DP  RH WIND       PRES   REMARKS
CEDAR RAPIDS   SUNNY     68  34  28 S7        30.09F
6HR MIN TEMP:  40; 6HR MAX TEMP:  69;

CHARLES CITY * SUNNY     68  30  24 W6G16     30.07F
CLINTON *      SUNNY     68  37  32 VRB5      30.10F
DECORAH *      SUNNY     68  30  24 W10G17    30.06F
DUBUQUE        SUNNY     68  34  28 NW12G20   30.10F
6HR MIN TEMP:  40; 6HR MAX TEMP:  68;

MONTICELLO *   SUNNY     68  30  24 N6G16     30.09F
OELWEIN *      SUNNY     68  34  28 SW13      30.08F
WATERLOO       SUNNY     69  32  25 VRB5      30.06F
6HR MIN TEMP:  36; 6HR MAX TEMP:  69;

$$

IAZ064-065-067-068-078-231900-
   EAST CENTRAL IOWA

CITY           SKY/WX    TMP DP  RH WIND       PRES   REMARKS
DAVENPORT      SUNNY     69  35  28 NE6       30.10F
6HR MIN TEMP:  37; 6HR MAX TEMP:  69;

IOWA CITY      SUNNY     69  36  29 SE5       30.11F
6HR MIN TEMP:  38; 6HR MAX TEMP:  70;

MUSCATINE *    SUNNY     68  28  22 VRB3G13   30.11F
QUAD CITIES    SUNNY     69  31  24 N6        30.09F
6HR MIN TEMP:  37; 6HR MAX TEMP:  69;

$$

IAZ062-063-075>077-085>089-095>099-231900-
   SOUTHEAST IOWA

CITY           SKY/WX    TMP DP  RH WIND       PRES   REMARKS
BURLINGTON     SUNNY     67  33  28 E6        30.10F
6HR MIN TEMP:  41; 6HR MAX TEMP:  67;

FAIRFIELD *    SUNNY     66  30  26 CALM      30.11F
FORT MADISON * SUNNY     72  36  26 NE5       30.12F
KEOKUK *       SUNNY     66  32  28 VRB5      30.11F
OSKALOOSA *      N/A     67  31  27 CALM      30.12F
OTTUMWA        SUNNY     67  33  28 CALM      30.11F
6HR MIN TEMP:  39; 6HR MAX TEMP:  67;

WASHINGTON *   SUNNY     68  34  28 CALM      30.12F
$$

ABBREVIATIONS USED IN REMARKS
   TC - TEMPERATURES IN CELSIUS
  WCI - WIND CHILL INDEX
   HX - HEAT INDEX
  VSB - VISIBILITY
$$




USA.gov is the U.S. government's official web portal to all federal, state and local government web resources and services.